NOAA NWS Hourly Roundups by Site

Regional Weather Roundup for Topeka, KS

To Select Another Site Choose from List

Select Site:  

000
ASUS43 KTOP 152159
RWRKS

WEATHER ROUNDUP FOR KANSAS
NATIONAL WEATHER SERVICE GOODLAND KS
500 PM CDT SUN SEP 15 2019

NOTE:  "FAIR" INDICATES FEW OR NO CLOUDS BELOW 12,000 FEET WITH NO
SIGNIFICANT WEATHER AND/OR OBSTRUCTIONS TO VISIBILITY.

KSZ001>006-013>018-027>032-041>047-152300-
NORTHWEST KANSAS

CITY           SKY/WX    TMP DP  RH WIND       PRES   REMARKS
GOODLAND       MOSUNNY   89  52  28 S17G26    30.01F
HAYS           SUNNY     93  58  30 S16       29.99F
HILL CITY      SUNNY     94  56  27 S9        29.98F
RUSSELL        SUNNY     94  58  29 S13       29.98F
$$

KSZ061>065-074>080-084>089-152300-
SOUTHWEST KANSAS

CITY           SKY/WX    TMP DP  RH WIND       PRES   REMARKS
DODGE CITY     SUNNY     93  52  24 S23G29    30.03F
GARDEN CITY    SUNNY     91  52  26 S20G26    30.02F
GREAT BEND     SUNNY     95  58  28 S16       30.00F
LIBERAL        MOSUNNY   92  55  28 S15       30.05F
$$

KSZ066>073-081>083-090>101-152300-
SOUTHEAST KANSAS

CITY           SKY/WX    TMP DP  RH WIND       PRES   REMARKS
COFFEYVILLE    SUNNY     93  65  39 SW8       30.02F HX  95
HUTCHINSON     SUNNY     95  59  30 S13       30.00F
MEDICINE LODGE   N/A     95  56  26 SW12      30.00F
NEWTON           N/A     92  65  40 S16G22    30.03S
PARSONS        PTSUNNY   91  71  51 SW8       30.05F HX  97
WICHITA INTL   MOSUNNY   93  67  42 S14       30.01F HX  96
WICHITA JABRA  SUNNY     91  67  44 S15       30.02F
WICHITA MCCONL SUNNY     92  62  37 SE15      30.03F
WINFIELD       SUNNY     91  66  43 S8        30.04F
$$

KSZ007>012-019>026-033>040-048>060-102>105-152300-
NORTHEAST KANSAS

CITY           SKY/WX    TMP DP  RH WIND       PRES   REMARKS
CONCORDIA      SUNNY     98  61  29 SW9       29.96F HX  98
EMPORIA        SUNNY     91  70  49 SW10      30.02F HX  96
LAWRENCE       SUNNY     92  69  47 SW13G20   29.99F HX  97
MANHATTAN      SUNNY     95  67  39 S9        29.97F HX  99
OLATHE IND     SUNNY     91  68  46 S14       30.02F HX  95
OLATHE EXE     SUNNY     90  68  48 SW9G21    30.02F
SALINA         SUNNY     96  59  29 SW13      29.98F HX  95
TOPEKA BILLARD SUNNY     92  68  45 S13       29.98F HX  96
TOPEKA FORBES  SUNNY     91  69  48 S13       30.00F HX  96
$$


 

View Past Reports for Topeka, KS.

Products Courtesy of NOAA-NWS
NWS Information Parsing Script by Ken True at Saratoga Weather - Script by SE Lincoln Weather.